User: anonymous   Login
Location: Goheenville
(40.9070°N, 79.3720°W)
Time: 09:53:51
(UTC-04:00)
Language:

Cosmos 1633 - Orbit

View from above orbital plane
View from above orbital plane
View from above satellite
View from above satellite

Ground track
Ground track

The orbit data is extracted from the following two-line orbital elements,

1 15592U 85020A   17234.69839293 +.00001628 +00000-0 +57078-4 0  9991
2 15592 082.5358 252.6630 0012058 306.5873 053.4256 15.28645890774176
Epoch (UTC): 22 August 2017 16:45:41
Eccentricity: 0.0012058
inclination: 82.5358°
perigee height: 471 km
apogee height: 488 km
right ascension of ascending node: 252.6630°
argument of perigee: 306.5873°
revolutions per day: 15.28645890
mean anomaly at epoch: 53.4256°
orbit number at epoch: 77417

The dashed part of the orbit path shows where the satellite is in the earth's shadow,  

DLR